• In Hungary
  • List of Countries
  • For 7 days
  • Water Temperature
  • Satellite Maps
  • Weather Map
  • News
  • Weather Widgets
  • user-avatar
    Login

    Hourly Weather Idzhewan

    Today, 22 August, Wednesday

    Time Temperature Precipitation Wind Pressure Humidity
    00:00 +20°C° 0 mm 1 mps 693 mmHg 80%
    01:00 +19°C° 0 mm 1 mps 693 mmHg 81%
    02:00 +19°C° 0 mm 1 mps 693 mmHg 82%
    03:00 +19°C° 0 mm 1 mps 693 mmHg 83%
    04:00 +19°C° 0 mm 1 mps 693 mmHg 83%
    05:00 +19°C° 0 mm 1 mps 693 mmHg 83%
    06:00 +19°C° 0 mm 1 mps 693 mmHg 83%
    07:00 +21°C° 0 mm 1 mps 693 mmHg 76%
    08:00 +23°C° 0 mm 1 mps 693 mmHg 69%
    09:00 +25°C° 0 mm 1 mps 693 mmHg 62%
    10:00 +26°C° 0.1 mm 2 mps 693 mmHg 58%
    11:00 +27°C° 0.1 mm 2 mps 693 mmHg 54%
    12:00 +29°C° 0.1 mm 2 mps 693 mmHg 49%
    13:00 +29°C° 0.3 mm 3 mps 692 mmHg 48%
    14:00 +29°C° 0.3 mm 3 mps 692 mmHg 48%
    15:00 +30°C° 0.3 mm 3 mps 692 mmHg 47%
    16:00 +29°C° 0.4 mm 3 mps 692 mmHg 50%
    17:00 +28°C° 0.4 mm 2 mps 692 mmHg 54%
    18:00 +27°C° 0.4 mm 2 mps 692 mmHg 57%
    19:00 +25°C° 0 mm 2 mps 692 mmHg 61%
    20:00 +24°C° 0 mm 1 mps 693 mmHg 65%
    21:00 +22°C° 0 mm 1 mps 693 mmHg 68%
    22:00 +22°C° 0 mm 1 mps 693 mmHg 70%
    23:00 +21°C° 0 mm 1 mps 693 mmHg 71%

    Tomorrow, 23 August, Thursday

    Time Temperature Precipitation Wind Pressure Humidity
    00:00 +21°C° 0 mm 1 mps 694 mmHg 73%
    01:00 +21°C° 0 mm 1 mps 694 mmHg 74%
    02:00 +20°C° 0 mm 1 mps 694 mmHg 75%
    03:00 +20°C° 0 mm 1 mps 694 mmHg 76%
    04:00 +20°C° 0 mm 1 mps 694 mmHg 77%
    05:00 +20°C° 0 mm 1 mps 694 mmHg 78%
    06:00 +20°C° 0 mm 1 mps 694 mmHg 78%
    07:00 +22°C° 0 mm 1 mps 694 mmHg 73%
    08:00 +23°C° 0 mm 2 mps 694 mmHg 67%
    09:00 +25°C° 0 mm 2 mps 694 mmHg 62%
    10:00 +26°C° 0 mm 2 mps 694 mmHg 58%
    11:00 +27°C° 0 mm 2 mps 694 mmHg 54%
    12:00 +29°C° 0 mm 3 mps 694 mmHg 50%
    13:00 +29°C° 0 mm 3 mps 694 mmHg 49%
    14:00 +29°C° 0 mm 3 mps 694 mmHg 48%
    15:00 +30°C° 0 mm 4 mps 693 mmHg 47%
    16:00 +29°C° 0 mm 3 mps 693 mmHg 50%
    17:00 +28°C° 0 mm 3 mps 693 mmHg 53%
    18:00 +27°C° 0 mm 3 mps 693 mmHg 56%
    19:00 +26°C° 0 mm 2 mps 694 mmHg 59%
    20:00 +24°C° 0 mm 2 mps 694 mmHg 63%
    21:00 +23°C° 0 mm 1 mps 694 mmHg 66%
    22:00 +22°C° 0 mm 1 mps 695 mmHg 67%
    23:00 +22°C° 0 mm 1 mps 695 mmHg 69%

    Day after tomorrow, 24 August, Friday

    Time Temperature Precipitation Wind Pressure Humidity
    00:00 +21°C° 0 mm 1 mps 695 mmHg 70%
    01:00 +21°C° 0 mm 1 mps 695 mmHg 72%
    02:00 +20°C° 0 mm 1 mps 695 mmHg 73%
    03:00 +20°C° 0 mm 1 mps 694 mmHg 75%
    04:00 +19°C° 0 mm 1 mps 694 mmHg 75%
    05:00 +19°C° 0 mm 1 mps 694 mmHg 76%
    06:00 +19°C° 0 mm 1 mps 695 mmHg 76%
    07:00 +21°C° 0 mm 1 mps 695 mmHg 70%
    08:00 +23°C° 0 mm 2 mps 695 mmHg 64%
    09:00 +25°C° 0 mm 2 mps 695 mmHg 58%
    10:00 +26°C° 0 mm 2 mps 694 mmHg 54%
    11:00 +27°C° 0 mm 3 mps 694 mmHg 50%
    12:00 +29°C° 0 mm 3 mps 694 mmHg 47%
    13:00 +29°C° 0 mm 3 mps 694 mmHg 46%
    14:00 +30°C° 0 mm 3 mps 693 mmHg 45%
    15:00 +30°C° 0 mm 3 mps 693 mmHg 44%
    16:00 +29°C° 0 mm 3 mps 693 mmHg 48%
    17:00 +28°C° 0 mm 3 mps 692 mmHg 51%
    18:00 +27°C° 0 mm 2 mps 692 mmHg 54%
    19:00 +25°C° 0 mm 2 mps 693 mmHg 58%
    20:00 +24°C° 0 mm 2 mps 693 mmHg 62%
    21:00 +22°C° 0 mm 1 mps 693 mmHg 66%
    22:00 +22°C° 0 mm 1 mps 693 mmHg 67%
    23:00 +21°C° 0 mm 1 mps 693 mmHg 69%

    25 August, Saturday

    Time Temperature Precipitation Wind Pressure Humidity
    00:00 +21°C° 0 mm 1 mps 693 mmHg 70%
    01:00 +20°C° 0 mm 1 mps 693 mmHg 72%
    02:00 +20°C° 0 mm 1 mps 693 mmHg 74%
    03:00 +19°C° 0 mm 1 mps 692 mmHg 76%
    04:00 +19°C° 0 mm 1 mps 692 mmHg 76%
    05:00 +19°C° 0 mm 1 mps 692 mmHg 76%
    06:00 +19°C° 0 mm 1 mps 692 mmHg 77%
    07:00 +22°C° 0 mm 1 mps 692 mmHg 69%
    08:00 +24°C° 0 mm 1 mps 693 mmHg 62%
    09:00 +26°C° 0 mm 1 mps 693 mmHg 55%
    10:00 +27°C° 0 mm 2 mps 693 mmHg 51%
    11:00 +29°C° 0 mm 2 mps 692 mmHg 47%
    12:00 +30°C° 0 mm 3 mps 692 mmHg 43%
    13:00 +31°C° 0 mm 3 mps 692 mmHg 43%
    14:00 +31°C° 0 mm 3 mps 691 mmHg 42%
    15:00 +31°C° 0 mm 3 mps 691 mmHg 42%
    16:00 +30°C° 0 mm 3 mps 691 mmHg 46%
    17:00 +29°C° 0 mm 3 mps 691 mmHg 50%
    18:00 +28°C° 0 mm 2 mps 691 mmHg 53%
    19:00 +26°C° 0 mm 2 mps 691 mmHg 57%
    20:00 +25°C° 0 mm 2 mps 692 mmHg 61%
    21:00 +23°C° 0 mm 1 mps 692 mmHg 64%
    22:00 +22°C° 0 mm 1 mps 692 mmHg 65%
    23:00 +22°C° 0 mm 1 mps 692 mmHg 67%

    26 August, Sunday

    Time Temperature Precipitation Wind Pressure Humidity
    00:00 +21°C° 0 mm 1 mps 692 mmHg 68%
    01:00 +21°C° 0 mm 1 mps 692 mmHg 69%
    02:00 +20°C° 0 mm 1 mps 692 mmHg 70%
    03:00 +19°C° 0 mm 1 mps 692 mmHg 71%
    04:00 +19°C° 0 mm 1 mps 692 mmHg 72%
    05:00 +19°C° 0 mm 1 mps 692 mmHg 72%
    06:00 +19°C° 0 mm 1 mps 692 mmHg 72%
    07:00 +21°C° 0 mm 1 mps 692 mmHg 65%
    08:00 +23°C° 0 mm 2 mps 692 mmHg 57%
    09:00 +25°C° 0 mm 2 mps 693 mmHg 50%
    10:00 +27°C° 0 mm 2 mps 692 mmHg 46%
    11:00 +28°C° 0 mm 3 mps 692 mmHg 43%
    12:00 +29°C° 0 mm 3 mps 692 mmHg 40%
    13:00 +30°C° 0 mm 3 mps 691 mmHg 39%
    14:00 +30°C° 0 mm 3 mps 691 mmHg 38%
    15:00 +32°C° 0 mm 4 mps 691 mmHg 37%
    16:00 +30°C° 0 mm 3 mps 690 mmHg 40%
    17:00 +28°C° 0 mm 3 mps 690 mmHg 42%
    18:00 +27°C° 0 mm 2 mps 690 mmHg 45%
    19:00 +25°C° 0 mm 2 mps 691 mmHg 47%
    20:00 +24°C° 0 mm 2 mps 691 mmHg 49%
    21:00 +22°C° 0 mm 1 mps 691 mmHg 51%
    22:00 +21°C° 0 mm 1 mps 691 mmHg 52%
    23:00 +21°C° 0 mm 1 mps 691 mmHg 53%

    27 August, Monday

    Time Temperature Precipitation Wind Pressure Humidity
    00:00 +20°C° 0 mm 1 mps 691 mmHg 54%
    01:00 +20°C° 0 mm 1 mps 690 mmHg 55%
    02:00 +19°C° 0 mm 1 mps 690 mmHg 56%
    03:00 +19°C° 0 mm 1 mps 690 mmHg 58%
    04:00 +19°C° 0 mm 1 mps 690 mmHg 58%
    05:00 +19°C° 0 mm 1 mps 690 mmHg 59%
    06:00 +18°C° 0 mm 2 mps 690 mmHg 60%
    07:00 +20°C° 0 mm 2 mps 690 mmHg 54%
    08:00 +24°C° 0 mm 2 mps 690 mmHg 48%
    09:00 +26°C° 0 mm 1 mps 690 mmHg 42%
    10:00 +28°C° 0 mm 2 mps 690 mmHg 39%
    11:00 +29°C° 0 mm 2 mps 690 mmHg 37%
    12:00 +30°C° 0 mm 3 mps 690 mmHg 35%
    13:00 +31°C° 0 mm 3 mps 690 mmHg 35%
    14:00 +31°C° 0 mm 3 mps 689 mmHg 35%
    15:00 +33°C° 0 mm 3 mps 689 mmHg 35%
    16:00 +30°C° 0 mm 3 mps 689 mmHg 39%
    17:00 +29°C° 0 mm 2 mps 689 mmHg 42%
    18:00 +28°C° 0 mm 2 mps 689 mmHg 46%
    19:00 +26°C° 0 mm 2 mps 690 mmHg 49%
    20:00 +24°C° 0 mm 2 mps 690 mmHg 51%
    21:00 +23°C° 0 mm 1 mps 690 mmHg 54%
    22:00 +22°C° 0 mm 1 mps 691 mmHg 55%
    23:00 +22°C° 0 mm 1 mps 691 mmHg 56%
    Show more